RYR23BF EGPH-EIDW

Flight info

Callsign RYR23BF
Flight time 0h 43m
Altitude 22000
Route GOSAM P600 TRN/N0362F240 DCT BLACA P620 NIMAT NIMAT4L
Aircraft B738/M-SDE2E3FGHIRWXY/LB1

Departure

Time 2026-05-04 12:50
Airport Edinburgh Airport (EGPH)

Arrival

Time 2026-05-04 13:33
Airport Dublin Airport (EIDW)
Time Latitude Longitude Altitude Speed Heading
2026-05-04 12:28 55.94612 -3.36630 115 ft 0 kts 89°
2026-05-04 12:40 55.94611 -3.36670 114 ft 4 kts 78°
2026-05-04 12:40 55.94601 -3.36713 111 ft 4 kts 49°
2026-05-04 12:40 55.94583 -3.36733 112 ft 2 kts 360°
2026-05-04 12:40 55.94581 -3.36733 112 ft 1 kts 359°
2026-05-04 12:44 55.94582 -3.36733 112 ft 0 kts 359°
2026-05-04 12:44 55.94592 -3.36733 112 ft 3 kts 359°
2026-05-04 12:45 55.94629 -3.36734 113 ft 7 kts 359°
2026-05-04 12:45 55.94692 -3.36736 115 ft 11 kts 359°
2026-05-04 12:45 55.94774 -3.36767 113 ft 13 kts 339°
2026-05-04 12:45 55.94861 -3.36778 115 ft 11 kts 355°
2026-05-04 12:46 55.94933 -3.36824 113 ft 8 kts 360°
2026-05-04 12:46 55.94968 -3.36778 114 ft 7 kts 60°
2026-05-04 12:46 55.94997 -3.36686 115 ft 10 kts 60°
2026-05-04 12:46 55.95040 -3.36559 113 ft 13 kts 58°
2026-05-04 12:47 55.95094 -3.36402 114 ft 16 kts 59°
2026-05-04 12:47 55.95158 -3.36210 113 ft 19 kts 59°
2026-05-04 12:47 55.95233 -3.35987 115 ft 22 kts 59°
2026-05-04 12:47 55.95315 -3.35745 114 ft 22 kts 59°
2026-05-04 12:48 55.95386 -3.35535 113 ft 17 kts 58°
2026-05-04 12:48 55.95447 -3.35404 113 ft 7 kts 16°
2026-05-04 12:48 55.95494 -3.35432 114 ft 8 kts 325°
2026-05-04 12:48 55.95552 -3.35498 112 ft 12 kts 324°
2026-05-04 12:49 55.95567 -3.35582 112 ft 6 kts 248°
2026-05-04 12:49 55.95542 -3.35654 112 ft 8 kts 239°
2026-05-04 12:49 55.95410 -3.36041 110 ft 82 kts 239°
2026-05-04 12:49 55.94963 -3.37358 213 ft 157 kts 241°
2026-05-04 12:50 55.94344 -3.39210 984 ft 186 kts 241°
2026-05-04 12:50 55.93622 -3.41203 2109 ft 201 kts 239°
2026-05-04 12:50 55.92858 -3.43471 2880 ft 223 kts 242°
2026-05-04 12:50 55.92023 -3.45939 3539 ft 240 kts 240°
2026-05-04 12:51 55.91104 -3.48483 4485 ft 246 kts 240°
2026-05-04 12:51 55.90398 -3.51275 5428 ft 247 kts 260°
2026-05-04 12:51 55.90107 -3.54333 5896 ft 251 kts 261°
2026-05-04 12:51 55.89806 -3.57382 6182 ft 251 kts 261°
2026-05-04 12:52 55.89403 -3.60446 6889 ft 258 kts 245°
2026-05-04 12:52 55.88255 -3.62920 7844 ft 264 kts 225°
2026-05-04 12:52 55.86872 -3.65109 8729 ft 268 kts 224°
2026-05-04 12:52 55.85456 -3.67312 9603 ft 273 kts 224°
2026-05-04 12:53 55.84016 -3.69549 10439 ft 278 kts 224°
2026-05-04 12:53 55.82496 -3.71922 10707 ft 303 kts 224°
2026-05-04 12:53 55.80862 -3.74482 11123 ft 320 kts 224°
2026-05-04 12:53 55.79163 -3.77142 11757 ft 329 kts 224°
2026-05-04 12:54 55.77432 -3.79853 12528 ft 335 kts 224°
2026-05-04 12:54 55.75675 -3.82607 13302 ft 340 kts 224°
2026-05-04 12:54 55.73886 -3.85409 14082 ft 344 kts 224°
2026-05-04 12:54 55.72088 -3.88225 14815 ft 347 kts 224°
2026-05-04 12:55 55.70264 -3.91080 15581 ft 350 kts 224°
2026-05-04 12:55 55.68437 -3.93938 16320 ft 353 kts 224°
2026-05-04 12:55 55.66583 -3.96836 17076 ft 355 kts 224°
2026-05-04 12:55 55.64733 -3.99725 17903 ft 356 kts 224°
2026-05-04 12:56 55.62878 -4.02616 18758 ft 353 kts 224°
2026-05-04 12:56 55.61040 -4.05477 19513 ft 353 kts 224°
2026-05-04 12:56 55.59191 -4.08352 20196 ft 354 kts 224°
2026-05-04 12:56 55.57341 -4.11226 20897 ft 355 kts 224°
2026-05-04 12:57 55.55483 -4.14109 21620 ft 355 kts 224°
2026-05-04 12:57 55.53643 -4.16961 22029 ft 357 kts 224°
2026-05-04 12:57 55.51780 -4.19845 22049 ft 356 kts 224°
2026-05-04 12:57 55.49916 -4.22725 22066 ft 357 kts 223°
2026-05-04 12:58 55.48048 -4.25607 22073 ft 358 kts 223°
2026-05-04 12:58 55.46170 -4.28503 22077 ft 359 kts 223°
2026-05-04 12:58 55.44290 -4.31398 22083 ft 359 kts 223°
2026-05-04 12:58 55.42405 -4.34296 22069 ft 360 kts 223°
2026-05-04 12:59 55.40519 -4.37194 22069 ft 361 kts 223°
2026-05-04 12:59 55.38627 -4.40095 22072 ft 361 kts 223°
2026-05-04 12:59 55.36733 -4.42994 22071 ft 361 kts 223°
2026-05-04 12:59 55.34841 -4.45887 22063 ft 360 kts 223°
2026-05-04 13:00 55.32951 -4.48773 22068 ft 360 kts 223°
2026-05-04 13:00 55.31065 -4.51648 22068 ft 360 kts 223°
2026-05-04 13:00 55.29176 -4.54526 22067 ft 360 kts 223°
2026-05-04 13:00 55.27282 -4.57408 22061 ft 359 kts 223°
2026-05-04 13:01 55.25397 -4.60272 22067 ft 359 kts 223°
2026-05-04 13:01 55.23510 -4.63135 22063 ft 359 kts 223°
2026-05-04 13:01 55.21621 -4.65998 22070 ft 359 kts 223°
2026-05-04 13:01 55.19731 -4.68858 22066 ft 359 kts 223°
2026-05-04 13:02 55.17843 -4.71712 22062 ft 359 kts 223°
2026-05-04 13:02 55.15948 -4.74573 22066 ft 360 kts 223°
2026-05-04 13:02 55.14051 -4.77433 22072 ft 360 kts 223°
2026-05-04 13:02 55.12158 -4.80283 22065 ft 360 kts 223°
2026-05-04 13:03 55.10253 -4.83149 22065 ft 361 kts 223°
2026-05-04 13:03 55.08349 -4.86007 22067 ft 361 kts 223°
2026-05-04 13:03 55.06441 -4.88868 22071 ft 361 kts 222°
2026-05-04 13:03 55.04535 -4.91725 22071 ft 362 kts 223°
2026-05-04 13:04 55.02650 -4.94546 22073 ft 362 kts 222°
2026-05-04 13:04 55.00732 -4.97409 22077 ft 363 kts 222°
2026-05-04 13:04 54.98822 -5.00259 22075 ft 363 kts 222°
2026-05-04 13:04 54.96896 -5.03131 22081 ft 364 kts 222°
2026-05-04 13:05 54.94974 -5.05993 22065 ft 364 kts 222°
2026-05-04 13:05 54.93051 -5.08852 22075 ft 364 kts 222°
2026-05-04 13:05 54.91124 -5.11712 22084 ft 364 kts 222°
2026-05-04 13:05 54.89090 -5.14365 22069 ft 366 kts 212°
2026-05-04 13:06 54.86804 -5.16312 22080 ft 367 kts 201°
2026-05-04 13:06 54.84352 -5.17529 22092 ft 368 kts 193°
2026-05-04 13:06 54.81848 -5.18452 22084 ft 368 kts 192°
2026-05-04 13:06 54.79334 -5.19325 22080 ft 368 kts 192°
2026-05-04 13:07 54.76826 -5.20196 22081 ft 368 kts 192°
2026-05-04 13:07 54.74311 -5.21085 22079 ft 368 kts 192°
2026-05-04 13:07 54.71805 -5.21985 22082 ft 368 kts 192°
2026-05-04 13:07 54.69291 -5.22897 22090 ft 368 kts 192°
2026-05-04 13:08 54.66784 -5.23813 22084 ft 368 kts 192°
2026-05-04 13:08 54.64280 -5.24728 22087 ft 368 kts 192°
2026-05-04 13:08 54.61770 -5.25647 22087 ft 368 kts 192°
2026-05-04 13:08 54.59267 -5.26561 22087 ft 368 kts 192°
2026-05-04 13:09 54.56766 -5.27474 22088 ft 368 kts 192°
2026-05-04 13:09 54.54256 -5.28389 22088 ft 368 kts 192°
2026-05-04 13:09 54.51750 -5.29300 22092 ft 368 kts 192°
2026-05-04 13:09 54.49255 -5.30299 22088 ft 368 kts 197°
2026-05-04 13:10 54.46888 -5.31921 22092 ft 367 kts 206°
2026-05-04 13:10 54.44624 -5.33827 22093 ft 367 kts 207°
2026-05-04 13:10 54.42341 -5.35799 22091 ft 367 kts 207°
2026-05-04 13:10 54.40064 -5.37766 22090 ft 367 kts 207°
2026-05-04 13:11 54.37779 -5.39722 22100 ft 367 kts 207°
2026-05-04 13:11 54.35490 -5.41667 22096 ft 366 kts 206°
2026-05-04 13:11 54.33239 -5.43566 22078 ft 356 kts 206°
2026-05-04 13:11 54.31023 -5.45427 22087 ft 353 kts 206°
2026-05-04 13:12 54.28827 -5.47267 22081 ft 350 kts 206°
2026-05-04 13:12 54.26648 -5.49090 22036 ft 350 kts 206°
2026-05-04 13:12 54.24460 -5.50919 21786 ft 348 kts 206°
2026-05-04 13:12 54.22290 -5.52730 21469 ft 347 kts 206°
2026-05-04 13:13 54.20136 -5.54526 21160 ft 343 kts 206°
2026-05-04 13:13 54.17993 -5.56311 20825 ft 341 kts 206°
2026-05-04 13:13 54.15870 -5.58076 20497 ft 339 kts 206°
2026-05-04 13:13 54.13754 -5.59835 20172 ft 337 kts 206°
2026-05-04 13:14 54.11657 -5.61583 19854 ft 334 kts 206°
2026-05-04 13:14 54.09572 -5.63324 19536 ft 332 kts 206°
2026-05-04 13:14 54.08200 -5.64469 19323 ft 331 kts 206°
2026-05-04 13:14 54.05441 -5.66769 18896 ft 329 kts 206°
2026-05-04 13:15 54.04085 -5.67899 18678 ft 328 kts 206°
2026-05-04 13:15 54.02038 -5.69603 18365 ft 326 kts 206°
2026-05-04 13:15 54.00008 -5.71289 17991 ft 325 kts 206°
2026-05-04 13:15 53.98097 -5.73352 17370 ft 329 kts 226°
2026-05-04 13:16 53.96794 -5.76496 17006 ft 325 kts 246°
2026-05-04 13:16 53.95883 -5.79988 16660 ft 323 kts 247°
2026-05-04 13:16 53.94978 -5.83479 16311 ft 321 kts 247°
2026-05-04 13:16 53.94078 -5.86929 15987 ft 319 kts 247°
2026-05-04 13:17 53.93176 -5.90354 15654 ft 316 kts 246°
2026-05-04 13:17 53.92276 -5.93741 15336 ft 314 kts 246°
2026-05-04 13:17 53.91375 -5.97108 15023 ft 312 kts 246°
2026-05-04 13:17 53.90477 -6.00443 14707 ft 310 kts 246°
2026-05-04 13:18 53.89583 -6.03755 14391 ft 308 kts 246°
2026-05-04 13:18 53.88694 -6.07037 14086 ft 306 kts 246°
2026-05-04 13:18 53.87816 -6.10272 13762 ft 305 kts 246°
2026-05-04 13:18 53.86933 -6.13518 13421 ft 303 kts 246°
2026-05-04 13:19 53.86038 -6.16801 13089 ft 301 kts 246°
2026-05-04 13:19 53.85176 -6.19960 12775 ft 298 kts 246°
2026-05-04 13:19 53.84307 -6.23138 12468 ft 296 kts 246°
2026-05-04 13:19 53.83443 -6.26297 12172 ft 294 kts 246°
2026-05-04 13:20 53.82585 -6.29425 11859 ft 292 kts 246°
2026-05-04 13:20 53.81733 -6.32531 11566 ft 290 kts 246°
2026-05-04 13:20 53.80884 -6.35620 11267 ft 289 kts 246°
2026-05-04 13:20 53.80040 -6.38689 10974 ft 287 kts 246°
2026-05-04 13:21 53.79200 -6.41738 10673 ft 286 kts 246°
2026-05-04 13:21 53.78360 -6.44783 10382 ft 284 kts 246°
2026-05-04 13:21 53.77528 -6.47793 10182 ft 279 kts 246°
2026-05-04 13:21 53.76714 -6.50736 9984 ft 275 kts 246°
2026-05-04 13:22 53.75906 -6.53654 9675 ft 274 kts 246°
2026-05-04 13:22 53.75099 -6.56565 9383 ft 272 kts 246°
2026-05-04 13:22 53.74295 -6.59458 9095 ft 270 kts 246°
2026-05-04 13:22 53.73498 -6.62326 8816 ft 269 kts 246°
2026-05-04 13:23 53.72708 -6.65167 8546 ft 267 kts 246°
2026-05-04 13:23 53.71938 -6.67932 8391 ft 260 kts 245°
2026-05-04 13:23 53.71174 -6.70670 8272 ft 253 kts 245°
2026-05-04 13:23 53.70335 -6.73268 8042 ft 256 kts 229°
2026-05-04 13:24 53.68830 -6.74852 7623 ft 263 kts 193°
2026-05-04 13:24 53.66992 -6.74890 7282 ft 266 kts 173°
2026-05-04 13:24 53.65179 -6.74360 7117 ft 260 kts 169°
2026-05-04 13:25 53.61867 -6.73214 6890 ft 226 kts 169°
2026-05-04 13:25 53.60376 -6.72711 6743 ft 211 kts 170°
2026-05-04 13:25 53.58955 -6.72241 6429 ft 207 kts 171°
2026-05-04 13:25 53.57552 -6.71787 6007 ft 206 kts 170°
2026-05-04 13:26 53.56140 -6.71336 5604 ft 205 kts 170°
2026-05-04 13:26 53.54737 -6.70891 5195 ft 205 kts 170°
2026-05-04 13:26 53.53356 -6.70456 4992 ft 196 kts 170°
2026-05-04 13:26 53.52023 -6.70037 4880 ft 196 kts 170°
2026-05-04 13:27 53.50657 -6.69611 4817 ft 203 kts 170°
2026-05-04 13:27 53.49254 -6.69173 4718 ft 207 kts 170°
2026-05-04 13:27 53.47838 -6.68730 4616 ft 206 kts 168°
2026-05-04 13:27 53.46572 -6.67666 4384 ft 207 kts 128°
2026-05-04 13:28 53.46034 -6.65496 4257 ft 203 kts 99°
2026-05-04 13:28 53.45777 -6.63154 4043 ft 203 kts 97°
2026-05-04 13:28 53.45589 -6.60838 3981 ft 198 kts 95°
2026-05-04 13:28 53.45444 -6.58548 3886 ft 199 kts 94°
2026-05-04 13:29 53.45306 -6.56202 3616 ft 203 kts 94°
2026-05-04 13:29 53.45171 -6.53889 3340 ft 201 kts 94°
2026-05-04 13:29 53.45040 -6.51591 3104 ft 194 kts 93°
2026-05-04 13:29 53.44913 -6.49356 2839 ft 191 kts 93°
2026-05-04 13:30 53.44787 -6.47150 2585 ft 189 kts 94°
2026-05-04 13:30 53.44663 -6.44946 2314 ft 191 kts 93°
2026-05-04 13:30 53.44537 -6.42744 2058 ft 186 kts 94°
2026-05-04 13:30 53.44417 -6.40647 1800 ft 176 kts 93°
2026-05-04 13:31 53.44306 -6.38661 1574 ft 167 kts 93°
2026-05-04 13:31 53.44202 -6.36821 1340 ft 152 kts 93°
2026-05-04 13:31 53.44105 -6.35129 1125 ft 141 kts 93°
2026-05-04 13:31 53.44007 -6.33514 933 ft 139 kts 94°
2026-05-04 13:32 53.43925 -6.31884 725 ft 141 kts 92°
2026-05-04 13:32 53.43843 -6.30238 521 ft 141 kts 93°
2026-05-04 13:32 53.43748 -6.28614 307 ft 138 kts 93°
2026-05-04 13:32 53.43662 -6.27061 212 ft 121 kts 95°
2026-05-04 13:33 53.43604 -6.26012 218 ft 60 kts 96°
2026-05-04 13:33 53.43566 -6.25409 209 ft 41 kts 101°
2026-05-04 13:33 53.43481 -6.25092 213 ft 23 kts 121°
2026-05-04 13:33 53.43412 -6.24899 210 ft 18 kts 120°
2026-05-04 13:34 53.43363 -6.24714 214 ft 17 kts 103°
2026-05-04 13:34 53.43351 -6.24539 210 ft 15 kts 95°
2026-05-04 13:34 53.43310 -6.24408 210 ft 12 kts 166°
2026-05-04 13:34 53.43211 -6.24417 218 ft 14 kts 186°
2026-05-04 13:35 53.43188 -6.24474 210 ft 8 kts 269°
2026-05-04 13:35 53.43178 -6.24677 219 ft 6 kts 206°
2026-05-04 13:35 53.43137 -6.24692 210 ft 6 kts 186°
2026-05-04 13:36 53.43099 -6.24698 210 ft 1 kts 185°
2026-05-04 13:36 53.43095 -6.24699 210 ft 1 kts 185°